FENGYUN 1C DEB

Satellite information

Favourite Embed

Satellite Type and Status

DEBRISIN ORBIT

Key statistics

Satellite FENGYUN 1C DEB at a glance.

Uptime

9664

Days in orbit

Revolutions

≈ 14.3

Per day

Orbit

SSO

Sun Synchronous Orbit

Inclination

98.8

Latest

Satellite identification and parameters

Extended collection of information and parameters for FENGYUN 1C DEB.

Object identification

Identified? True

Debris? True

Object name: FENGYUN 1C DEB

International designator: 1999-025BHL

Object number (NORAD): 31158

Object ID (CCSDS): 31158

Country: PEOPLES REPUBLIC OF CHINA (PRC)

Current information (Y/N): Y

RCS size: SMALL

Orbital parameters

Period: 100.526 minutes

Inclination: 98.7831 deg

SMA: 7161.626 km

Apoapsis: 819.876 km

Periapsis: 747.107 km

RAAN: 12.9215 deg

Eccentricy: 0.00508046

Argument of periapsis: 184.8806 deg

Mean anomaly: 175.1888 deg

Mean motion: 14.32469182 rev/day

Mean motion (dot): 0.00007426 rev/day2

B* drag term: 0.0027170049 1/REarth

Two-line elements (TLE)

Creation date: Oct. 22, 2025, 5:40 p.m.

Reference frame: TEME

Reference center: EARTH

Epoch: Oct. 21, 2025, 10:58 p.m. UTC

TLE line 0: 0 FENGYUN 1C DEB

TLE line 1: 1 31158U 99025BHL 25294.95701992 .00007426 00000-0 27170-2 0 9995

TLE line 2: 2 31158 98.7831 12.9215 0050805 184.8806 175.1888 14.32469182637384

Live tracking on map

Real-time ground track for satellite FENGYUN 1C DEB.

In-orbit conjunctions

A list of the most updated potential collisions computed for object FENGYUN 1C DEB.

Target Orbit TCA Probability of collision Miss distance Type
IRIDIUM 44 LEO 2025-03-15 05:05:31 0.0002798018 77.0 (m) PAYLOAD

Associated space launch

Chinese polar orbiting meteorological satellite

FENGYUN 1C DEB was lifted into orbit during the mission ‘Long March 4B | Feng Yun 1C’, on board a Long March 4B space rocket.

The launch took place on May 10, 1999, 1:33 a.m. from Launch Complex 7.

For more information about the launch, click the button.

Launch to space Long March 4B | Feng Yun 1C
Long March 4B | Feng Yun 1C

Agency: N/A

Status: Launch Successful

Launch date: May 10, 1999, 1:33 a.m. UTC

Rocket: Long March 4B

Launch pad: Launch Complex 7

Location: Taiyuan Satellite Launch Center, People's Republic of China

...

Latest news about this satellite

There are no fresh news available about this satellite. Check back as we update our databases every day.


Newsletter sign-up

Weekly statistics, charts and insights to help you stay on top of the space industry.